Find Starlink 4024

NORAD ID: 52599 Int'l Des: 2022-052 Owner: SPXS Country: US Constellation: starlink operational
LEOCIRCULAR

当前视图

正在加载3D地球...

About Starlink 4024

Starlink 4024 (NORAD 52599) is a starlink constellation satellite (v1.5) launched May 14, 2022 by SPXS of US. It operates in LEO, CIRCULAR orbit with a mass of 297.00 kg.

关于 Starlink 4024

正在加载描述...

即将过境

Passes for default location (London). Set your location on the main map for personalized predictions.

高度历史

Loading altitude history...

两行轨道根数

1 52599U 22052B 26168.91668981 .00076744 00000-0 37837-2 0 9990
2 52599 53.1592 189.0494 0002449 78.9449 69.0739 15.17263125 5802
Epoch: Jun 17, 2026 • Age: 13 hours

当前状态

高度 531.0 km
速度 7.60 km/s
星下点 -46.35°S, 59.01°E
发射日期 May 14, 2022
运行时间 4 years
类型 internet

技术详情

分类 Payload
质量 297.00 kg
干质量 275.00 kg
总质量 297.00 kg
长度 0.20 m
直径 2.80 m
跨度 9.00 m
形状 Box + pan
制造商 SPXS
平台类型 Starlink
阶段状态 In Orbit
所有者/国家 SPXS/US

Most Searched